Time,TemperatureF,DewpointF,PressureIn,WindDirection,WindDirectionDegrees,WindSpeedMPH,WindSpeedGustMPH,Humidity,HourlyPrecipIn,Conditions,Clouds,dailyrainin,SoftwareType,DateUTC
2013-07-01 00:00:00,70.7,67.3,29.82,ESE,104,0.0,1.0,89,0.00,,,0.01,meteohub,2013-07-01 04:00:00,
2013-07-01 00:02:00,70.7,67.3,29.82,ESE,104,0.0,1.0,89,0.00,,,0.01,meteohub,2013-07-01 04:02:00,
2013-07-01 00:06:00,70.5,67.1,29.82,ESE,104,0.0,1.0,89,0.00,,,0.00,meteohub,2013-07-01 04:06:00,
2013-07-01 00:07:00,70.5,67.1,29.82,ESE,104,0.0,1.0,89,0.00,,,0.00,meteohub,2013-07-01 04:07:00,
2013-07-01 00:09:00,70.5,67.1,29.82,ESE,104,0.0,1.0,89,0.00,,,0.00,meteohub,2013-07-01 04:09:00,
2013-07-01 00:12:00,70.5,67.1,29.82,ESE,104,0.0,1.0,89,0.00,,,0.00,meteohub,2013-07-01 04:12:00,
2013-07-01 00:18:00,70.5,67.1,29.81,East,93,0.0,0.0,89,0.00,,,0.00,meteohub,2013-07-01 04:18:00,
2013-07-01 00:24:00,70.3,67.3,29.81,East,85,0.0,0.0,90,0.00,,,0.00,meteohub,2013-07-01 04:24:00,
2013-07-01 00:30:00,70.2,66.7,29.81,East,85,0.0,1.0,89,0.00,,,0.00,meteohub,2013-07-01 04:30:00,
2013-07-01 00:36:00,70.0,66.6,29.81,NNW,344,0.0,1.0,89,0.00,,,0.00,meteohub,2013-07-01 04:36:00,
2013-07-01 00:42:00,69.8,66.7,29.81,NNW,343,0.0,1.0,90,0.00,,,0.00,meteohub,2013-07-01 04:42:00,
2013-07-01 00:47:00,69.6,66.6,29.81,South,191,0.0,1.0,90,0.00,,,0.00,meteohub,2013-07-01 04:47:00,
2013-07-01 00:52:00,69.6,66.2,29.81,SSW,194,0.0,1.0,89,0.00,,,0.00,meteohub,2013-07-01 04:52:00,
2013-07-01 00:57:00,69.4,66.0,29.81,West,276,0.0,1.0,89,0.00,,,0.00,meteohub,2013-07-01 04:57:00,
2013-07-01 01:02:00,69.4,66.4,29.81,West,276,0.0,2.0,90,0.00,,,0.00,meteohub,2013-07-01 05:02:00,
2013-07-01 01:07:00,69.3,66.2,29.81,West,277,0.0,2.0,90,0.00,,,0.00,meteohub,2013-07-01 05:07:00,
2013-07-01 01:12:00,69.3,66.2,29.81,West,277,1.0,1.0,90,0.00,,,0.00,meteohub,2013-07-01 05:12:00,
2013-07-01 01:17:00,69.1,66.4,29.81,WNW,284,0.0,1.0,91,0.00,,,0.00,meteohub,2013-07-01 05:17:00,
2013-07-01 01:22:00,68.9,66.2,29.81,WNW,284,0.0,1.0,91,0.00,,,0.00,meteohub,2013-07-01 05:22:00,
2013-07-01 01:27:00,68.7,66.0,29.81,WNW,284,0.0,1.0,91,0.00,,,0.00,meteohub,2013-07-01 05:27:00,
2013-07-01 01:32:00,68.7,66.0,29.81,WNW,284,0.0,0.0,91,0.00,,,0.00,meteohub,2013-07-01 05:32:00,
2013-07-01 01:37:00,68.5,65.8,29.81,WNW,284,0.0,0.0,91,0.00,,,0.00,meteohub,2013-07-01 05:37:00,
2013-07-01 01:42:00,68.5,66.2,29.81,WNW,284,0.0,1.0,92,0.00,,,0.00,meteohub,2013-07-01 05:42:00,
2013-07-01 01:47:00,68.5,65.8,29.81,WNW,284,0.0,1.0,91,0.00,,,0.00,meteohub,2013-07-01 05:47:00,
2013-07-01 01:52:00,68.5,66.2,29.81,WNW,284,0.0,1.0,92,0.00,,,0.00,meteohub,2013-07-01 05:52:00,
2013-07-01 01:58:00,68.4,66.0,29.81,WNW,284,0.0,1.0,92,0.00,,,0.00,meteohub,2013-07-01 05:58:00,
2013-07-01 02:04:00,68.4,66.0,29.81,WNW,284,0.0,1.0,92,0.00,,,0.00,meteohub,2013-07-01 06:04:00,
2013-07-01 02:10:00,68.4,66.0,29.81,WNW,284,0.0,0.0,92,0.00,,,0.00,meteohub,2013-07-01 06:10:00,
2013-07-01 02:16:00,68.2,65.8,29.81,WNW,284,0.0,0.0,92,0.00,,,0.00,meteohub,2013-07-01 06:16:00,
2013-07-01 02:22:00,68.2,65.8,29.81,WNW,284,0.0,0.0,92,0.00,,,0.00,meteohub,2013-07-01 06:22:00,
2013-07-01 02:27:00,68.0,65.8,29.81,WNW,284,0.0,0.0,93,0.00,,,0.00,meteohub,2013-07-01 06:27:00,
2013-07-01 02:32:00,68.0,65.8,29.81,WNW,284,0.0,0.0,93,0.00,,,0.00,meteohub,2013-07-01 06:32:00,
2013-07-01 02:37:00,67.8,65.7,29.81,WNW,284,0.0,1.0,93,0.00,,,0.00,meteohub,2013-07-01 06:37:00,
2013-07-01 02:44:00,67.6,65.5,29.81,WNW,284,0.0,1.0,93,0.00,,,0.00,meteohub,2013-07-01 06:44:00,
2013-07-01 02:50:00,67.6,65.5,29.81,NW,317,2.0,2.0,93,0.00,,,0.00,meteohub,2013-07-01 06:50:00,
2013-07-01 02:56:00,67.6,65.5,29.81,NNW,329,0.0,2.0,93,0.00,,,0.00,meteohub,2013-07-01 06:56:00,
2013-07-01 03:02:00,67.6,65.5,29.81,NNW,329,0.0,2.0,93,0.00,,,0.00,meteohub,2013-07-01 07:02:00,
2013-07-01 03:07:00,67.5,65.7,29.81,NNW,329,0.0,2.0,94,0.00,,,0.00,meteohub,2013-07-01 07:07:00,
2013-07-01 03:12:00,67.5,65.7,29.81,NNW,329,0.0,1.0,94,0.00,,,0.00,meteohub,2013-07-01 07:12:00,
2013-07-01 03:17:00,67.5,65.7,29.81,NNW,329,0.0,0.0,94,0.00,,,0.00,meteohub,2013-07-01 07:17:00,
2013-07-01 03:24:00,67.5,65.7,29.81,NNW,329,0.0,0.0,94,0.00,,,0.00,meteohub,2013-07-01 07:24:00,
2013-07-01 03:30:00,67.3,65.5,29.81,NNW,329,0.0,0.0,94,0.00,,,0.00,meteohub,2013-07-01 07:30:00,
2013-07-01 03:36:00,67.3,65.5,29.81,NNW,329,0.0,0.0,94,0.00,,,0.00,meteohub,2013-07-01 07:36:00,
2013-07-01 03:42:00,67.3,65.5,29.81,NNW,329,0.0,0.0,94,0.00,,,0.00,meteohub,2013-07-01 07:42:00,
2013-07-01 03:47:00,67.3,65.5,29.81,NNW,329,0.0,0.0,94,0.00,,,0.00,meteohub,2013-07-01 07:47:00,
2013-07-01 03:52:00,67.3,65.8,29.82,NNW,330,0.0,0.0,95,0.00,,,0.00,meteohub,2013-07-01 07:52:00,
2013-07-01 03:58:00,67.3,65.5,29.82,NNW,330,0.0,0.0,94,0.00,,,0.00,meteohub,2013-07-01 07:58:00,
2013-07-01 04:04:00,67.3,65.5,29.81,NNW,330,0.0,0.0,94,0.00,,,0.00,meteohub,2013-07-01 08:04:00,
2013-07-01 04:10:00,67.3,65.8,29.81,NNW,330,0.0,0.0,95,0.00,,,0.00,meteohub,2013-07-01 08:10:00,
2013-07-01 04:16:00,67.3,65.8,29.81,NNW,330,0.0,0.0,95,0.00,,,0.00,meteohub,2013-07-01 08:16:00,
2013-07-01 04:22:00,67.1,65.7,29.82,NNW,330,0.0,0.0,95,0.00,,,0.00,meteohub,2013-07-01 08:22:00,
2013-07-01 04:27:00,67.1,65.7,29.82,SSE,148,1.0,0.0,95,0.00,,,0.00,meteohub,2013-07-01 08:27:00,
2013-07-01 04:32:00,67.1,65.7,29.81,SSE,148,0.0,3.0,95,0.00,,,0.00,meteohub,2013-07-01 08:32:00,
2013-07-01 04:37:00,66.9,65.5,29.82,SSE,148,0.0,3.0,95,0.00,,,0.00,meteohub,2013-07-01 08:37:00,
2013-07-01 04:47:00,66.9,65.5,29.81,SSE,148,0.0,1.0,95,0.00,,,0.00,meteohub,2013-07-01 08:47:00,
2013-07-01 04:52:00,66.9,65.5,29.82,SSE,148,0.0,0.0,95,0.00,,,0.00,meteohub,2013-07-01 08:52:00,
2013-07-01 04:57:00,66.9,65.5,29.81,SSE,148,0.0,0.0,95,0.00,,,0.00,meteohub,2013-07-01 08:57:00,
2013-07-01 05:03:00,66.9,65.5,29.82,SSE,149,0.0,1.0,95,0.00,,,0.00,meteohub,2013-07-01 09:03:00,
2013-07-01 05:09:00,66.9,65.5,29.82,SSE,149,0.0,1.0,95,0.00,,,0.00,meteohub,2013-07-01 09:09:00,
2013-07-01 05:15:00,66.9,65.5,29.83,SSE,148,0.0,0.0,95,0.00,,,0.00,meteohub,2013-07-01 09:15:00,
2013-07-01 05:21:00,66.9,65.5,29.84,SSE,148,0.0,0.0,95,0.00,,,0.00,meteohub,2013-07-01 09:21:00,
2013-07-01 05:27:00,66.9,65.5,29.84,SSE,149,0.0,0.0,95,0.00,,,0.00,meteohub,2013-07-01 09:27:00,
2013-07-01 05:34:00,66.9,65.5,29.84,SSE,148,0.0,0.0,95,0.00,,,0.00,meteohub,2013-07-01 09:34:00,
2013-07-01 05:40:00,66.9,65.7,29.84,SSE,148,0.0,0.0,96,0.00,,,0.00,meteohub,2013-07-01 09:40:00,
2013-07-01 05:46:00,66.9,65.7,29.84,SSE,148,0.0,0.0,96,0.00,,,0.00,meteohub,2013-07-01 09:46:00,
2013-07-01 05:52:00,67.1,65.8,29.84,SSE,148,0.0,0.0,96,0.00,,,0.00,meteohub,2013-07-01 09:52:00,
2013-07-01 05:57:00,66.9,65.7,29.85,SSE,148,0.0,0.0,96,0.00,,,0.00,meteohub,2013-07-01 09:57:00,
2013-07-01 06:05:00,66.9,65.5,29.85,SSE,149,0.0,1.0,95,0.00,,,0.00,meteohub,2013-07-01 10:05:00,
2013-07-01 06:11:00,66.9,65.7,29.85,SSE,148,0.0,1.0,96,0.00,,,0.00,meteohub,2013-07-01 10:11:00,
2013-07-01 06:17:00,66.7,65.5,29.85,SSE,148,0.0,0.0,96,0.00,,,0.00,meteohub,2013-07-01 10:17:00,
2013-07-01 06:23:00,66.9,65.7,29.85,SSE,148,0.0,0.0,96,0.00,,,0.00,meteohub,2013-07-01 10:23:00,
2013-07-01 06:29:00,66.9,65.7,29.86,SSE,149,0.0,0.0,96,0.00,,,0.00,meteohub,2013-07-01 10:29:00,
2013-07-01 06:35:00,66.9,65.7,29.86,SSE,148,0.0,0.0,96,0.00,,,0.00,meteohub,2013-07-01 10:35:00,
2013-07-01 06:41:00,67.1,65.8,29.86,SSE,149,0.0,0.0,96,0.00,,,0.00,meteohub,2013-07-01 10:41:00,
2013-07-01 06:47:00,67.3,66.0,29.85,SSE,148,0.0,0.0,96,0.00,,,0.00,meteohub,2013-07-01 10:47:00,
2013-07-01 06:52:00,67.3,66.0,29.86,SSE,148,0.0,0.0,96,0.00,,,0.00,meteohub,2013-07-01 10:52:00,
2013-07-01 06:57:00,67.5,66.2,29.86,SSE,149,0.0,0.0,96,0.00,,,0.00,meteohub,2013-07-01 10:57:00,
2013-07-01 07:02:00,67.5,66.2,29.86,SSE,149,0.0,0.0,96,0.00,,,0.00,meteohub,2013-07-01 11:02:00,
2013-07-01 07:08:00,67.6,66.4,29.86,SSE,149,0.0,0.0,96,0.00,,,0.00,meteohub,2013-07-01 11:08:00,
2013-07-01 07:14:00,67.8,66.6,29.86,SSE,148,0.0,0.0,96,0.00,,,0.00,meteohub,2013-07-01 11:14:00,
2013-07-01 07:21:00,68.2,66.9,29.86,SSE,148,0.0,0.0,96,0.00,,,0.00,meteohub,2013-07-01 11:21:00,
2013-07-01 07:27:00,68.2,66.9,29.86,SSE,149,0.0,0.0,96,0.00,,,0.00,meteohub,2013-07-01 11:27:00,
2013-07-01 07:32:00,68.2,66.9,29.86,SSE,148,0.0,0.0,96,0.00,,,0.00,meteohub,2013-07-01 11:32:00,
2013-07-01 07:37:00,68.4,67.1,29.86,SSE,148,0.0,0.0,96,0.00,,,0.00,meteohub,2013-07-01 11:37:00,
2013-07-01 07:42:00,68.4,67.1,29.86,SSE,148,0.0,0.0,96,0.00,,,0.00,meteohub,2013-07-01 11:42:00,
2013-07-01 07:47:00,68.4,67.1,29.85,SSE,148,0.0,0.0,96,0.00,,,0.00,meteohub,2013-07-01 11:47:00,
2013-07-01 07:52:00,68.2,66.7,29.86,SSE,149,0.0,0.0,95,0.00,,,0.00,meteohub,2013-07-01 11:52:00,
2013-07-01 07:57:00,68.2,66.9,29.86,SSE,148,0.0,0.0,96,0.00,,,0.00,meteohub,2013-07-01 11:57:00,
2013-07-01 08:02:00,68.2,66.9,29.86,West,259,0.0,0.0,96,0.00,,,0.00,meteohub,2013-07-01 12:02:00,
2013-07-01 08:07:00,68.2,66.9,29.86,WNW,299,0.0,1.0,96,0.00,,,0.00,meteohub,2013-07-01 12:07:00,
2013-07-01 08:12:00,68.2,66.9,29.86,WNW,299,0.0,2.0,96,0.00,,,0.00,meteohub,2013-07-01 12:12:00,
2013-07-01 08:17:00,68.4,67.1,29.86,NW,319,0.0,2.0,96,0.00,,,0.00,meteohub,2013-07-01 12:17:00,
2013-07-01 08:22:00,68.2,66.9,29.86,NW,322,0.0,2.0,96,0.00,,,0.00,meteohub,2013-07-01 12:22:00,
2013-07-01 08:27:00,68.2,66.7,29.86,NW,322,1.0,2.0,95,0.00,,,0.00,meteohub,2013-07-01 12:27:00,
2013-07-01 08:32:00,68.2,66.9,29.86,NW,322,0.0,2.0,96,0.00,,,0.00,meteohub,2013-07-01 12:32:00,
2013-07-01 08:37:00,68.4,67.1,29.86,NW,322,0.0,2.0,96,0.00,,,0.00,meteohub,2013-07-01 12:37:00,
2013-07-01 08:42:00,68.7,67.5,29.86,NW,322,0.0,2.0,96,0.00,,,0.00,meteohub,2013-07-01 12:42:00,
2013-07-01 08:47:00,68.9,67.6,29.86,NW,322,0.0,1.0,96,0.00,,,0.00,meteohub,2013-07-01 12:47:00,
2013-07-01 08:52:00,69.1,67.8,29.86,NW,322,0.0,1.0,96,0.00,,,0.00,meteohub,2013-07-01 12:52:00,
2013-07-01 08:57:00,69.4,68.0,29.86,NW,322,0.0,1.0,95,0.00,,,0.00,meteohub,2013-07-01 12:57:00,
2013-07-01 09:04:00,70.0,68.5,29.86,NW,322,1.0,1.0,95,0.00,,,0.00,meteohub,2013-07-01 13:04:00,
2013-07-01 09:10:00,70.3,68.9,29.86,NW,322,3.0,3.0,95,0.00,,,0.00,meteohub,2013-07-01 13:10:00,
2013-07-01 09:16:00,70.5,68.7,29.86,NNW,340,1.0,3.0,94,0.00,,,0.00,meteohub,2013-07-01 13:16:00,
2013-07-01 09:22:00,70.9,68.7,29.86,NNW,336,0.0,3.0,93,0.00,,,0.00,meteohub,2013-07-01 13:22:00,
2013-07-01 09:27:00,71.2,68.5,29.86,South,182,0.0,3.0,91,0.00,,,0.00,meteohub,2013-07-01 13:27:00,
2013-07-01 09:32:00,71.8,68.7,29.87,SSW,200,0.0,2.0,90,0.00,,,0.00,meteohub,2013-07-01 13:32:00,
2013-07-01 09:37:00,72.1,69.4,29.87,SSW,208,0.0,2.0,91,0.00,,,0.00,meteohub,2013-07-01 13:37:00,
2013-07-01 09:42:00,72.3,68.5,29.87,South,169,0.0,2.0,88,0.00,,,0.00,meteohub,2013-07-01 13:42:00,
2013-07-01 09:47:00,72.5,69.4,29.87,South,171,0.0,2.0,90,0.00,,,0.00,meteohub,2013-07-01 13:47:00,
2013-07-01 09:52:00,72.5,69.4,29.87,NNW,348,0.0,2.0,90,0.00,,,0.00,meteohub,2013-07-01 13:52:00,
2013-07-01 09:57:00,72.5,69.4,29.87,NNW,348,0.0,2.0,90,0.00,,,0.00,meteohub,2013-07-01 13:57:00,
2013-07-01 10:02:00,72.7,69.6,29.87,NNW,348,0.0,0.0,90,0.00,,,0.00,meteohub,2013-07-01 14:02:00,
2013-07-01 10:07:00,73.0,69.6,29.87,NNW,348,0.0,0.0,89,0.00,,,0.00,meteohub,2013-07-01 14:07:00,
2013-07-01 10:12:00,73.4,69.3,29.87,West,281,0.0,0.0,87,0.00,,,0.00,meteohub,2013-07-01 14:12:00,
2013-07-01 10:17:00,73.8,69.6,29.87,West,281,0.0,2.0,87,0.00,,,0.00,meteohub,2013-07-01 14:17:00,
2013-07-01 10:22:00,74.1,70.0,29.87,SSW,208,0.0,2.0,87,0.00,,,0.00,meteohub,2013-07-01 14:22:00,
2013-07-01 10:27:00,74.5,69.3,29.88,SSE,155,0.0,2.0,84,0.00,,,0.00,meteohub,2013-07-01 14:27:00,
2013-07-01 10:32:00,74.5,68.5,29.88,SW,216,0.0,1.0,82,0.00,,,0.00,meteohub,2013-07-01 14:32:00,
2013-07-01 10:37:00,74.3,68.7,29.88,SE,146,0.0,2.0,83,0.00,,,0.00,meteohub,2013-07-01 14:37:00,
2013-07-01 10:42:00,74.1,68.5,29.88,ENE,73,0.0,2.0,83,0.00,,,0.00,meteohub,2013-07-01 14:42:00,
2013-07-01 10:47:00,73.9,68.7,29.88,East,87,0.0,2.0,84,0.00,,,0.00,meteohub,2013-07-01 14:47:00,
2013-07-01 10:52:00,73.6,68.7,29.88,SE,128,0.0,2.0,85,0.00,,,0.00,meteohub,2013-07-01 14:52:00,
2013-07-01 10:57:00,73.4,68.9,29.88,East,86,0.0,3.0,86,0.00,,,0.00,meteohub,2013-07-01 14:57:00,
2013-07-01 11:02:00,73.2,69.1,29.88,East,98,0.0,3.0,87,0.00,,,0.00,meteohub,2013-07-01 15:02:00,
2013-07-01 11:07:00,73.2,69.4,29.88,East,98,0.0,2.0,88,0.00,,,0.00,meteohub,2013-07-01 15:07:00,
2013-07-01 11:12:00,73.2,69.8,29.88,East,98,0.0,2.0,89,0.01,,,0.01,meteohub,2013-07-01 15:12:00,
2013-07-01 11:17:00,73.2,69.8,29.88,East,98,0.0,1.0,89,0.01,,,0.01,meteohub,2013-07-01 15:17:00,
2013-07-01 11:22:00,73.6,70.5,29.88,East,98,0.0,1.0,90,0.01,,,0.01,meteohub,2013-07-01 15:22:00,
2013-07-01 11:27:00,73.8,70.3,29.88,SE,134,0.0,1.0,89,0.01,,,0.01,meteohub,2013-07-01 15:27:00,
2013-07-01 11:32:00,73.8,70.7,29.88,South,183,0.0,1.0,90,0.01,,,0.01,meteohub,2013-07-01 15:32:00,
2013-07-01 11:37:00,73.8,70.3,29.88,East,94,1.0,1.0,89,0.01,,,0.01,meteohub,2013-07-01 15:37:00,
2013-07-01 11:42:00,73.6,68.7,29.88,SSW,208,0.0,4.0,85,0.01,,,0.01,meteohub,2013-07-01 15:42:00,
2013-07-01 11:47:00,73.4,69.3,29.88,SSW,208,0.0,4.0,87,0.01,,,0.01,meteohub,2013-07-01 15:47:00,
2013-07-01 11:52:00,73.6,69.4,29.88,SSW,207,0.0,4.0,87,0.01,,,0.01,meteohub,2013-07-01 15:52:00,
2013-07-01 11:57:00,73.6,69.8,29.88,SE,124,0.0,2.0,88,0.01,,,0.01,meteohub,2013-07-01 15:57:00,
2013-07-01 12:02:00,73.6,70.2,29.88,SE,124,0.0,1.0,89,0.01,,,0.01,meteohub,2013-07-01 16:02:00,
2013-07-01 12:07:00,73.6,70.2,29.88,SE,124,0.0,1.0,89,0.01,,,0.01,meteohub,2013-07-01 16:07:00,
2013-07-01 12:12:00,73.6,70.5,29.87,SE,129,1.0,1.0,90,0.00,,,0.01,meteohub,2013-07-01 16:12:00,
2013-07-01 12:17:00,73.6,70.2,29.87,ESE,120,0.0,1.0,89,0.00,,,0.01,meteohub,2013-07-01 16:17:00,
2013-07-01 12:22:00,73.6,70.2,29.87,NNW,329,0.0,2.0,89,0.00,,,0.01,meteohub,2013-07-01 16:22:00,
2013-07-01 12:27:00,73.9,70.5,29.87,WSW,250,0.0,2.0,89,0.00,,,0.01,meteohub,2013-07-01 16:27:00,
2013-07-01 12:32:00,75.2,72.3,29.87,SE,126,2.0,2.0,91,0.00,,,0.01,meteohub,2013-07-01 16:32:00,
2013-07-01 12:37:00,75.9,71.4,29.87,SSE,156,1.0,3.0,86,0.00,,,0.01,meteohub,2013-07-01 16:37:00,
2013-07-01 12:44:00,76.8,71.6,29.86,South,181,1.0,4.0,84,0.00,,,0.01,meteohub,2013-07-01 16:44:00,
2013-07-01 12:50:00,77.2,72.0,29.87,South,186,0.0,4.0,84,0.00,,,0.01,meteohub,2013-07-01 16:50:00,
2013-07-01 12:56:00,78.1,72.1,29.87,SE,144,0.0,3.0,82,0.00,,,0.01,meteohub,2013-07-01 16:56:00,
2013-07-01 13:02:00,79.2,72.1,29.87,South,182,2.0,3.0,79,0.00,,,0.01,meteohub,2013-07-01 17:02:00,
2013-07-01 13:07:00,79.9,72.9,29.86,SSE,147,1.0,3.0,79,0.00,,,0.01,meteohub,2013-07-01 17:07:00,
2013-07-01 13:12:00,80.2,70.0,29.87,SSW,195,0.0,3.0,71,0.00,,,0.01,meteohub,2013-07-01 17:12:00,
2013-07-01 13:17:00,80.1,70.2,29.86,ESE,104,3.0,4.0,72,0.00,,,0.01,meteohub,2013-07-01 17:17:00,
2013-07-01 13:23:00,80.8,72.1,29.86,South,189,2.0,4.0,75,0.00,,,0.01,meteohub,2013-07-01 17:23:00,
2013-07-01 13:29:00,81.7,70.9,29.86,SSE,163,2.0,4.0,70,0.00,,,0.01,meteohub,2013-07-01 17:29:00,
2013-07-01 13:35:00,82.2,71.1,29.86,WSW,241,1.0,7.0,69,0.00,,,0.01,meteohub,2013-07-01 17:35:00,
2013-07-01 13:41:00,82.0,70.9,29.86,WNW,286,2.0,7.0,69,0.00,,,0.01,meteohub,2013-07-01 17:41:00,
2013-07-01 13:47:00,82.6,71.4,29.85,SSE,164,1.0,7.0,69,0.00,,,0.01,meteohub,2013-07-01 17:47:00,
2013-07-01 13:52:00,83.1,71.4,29.85,SE,146,0.0,6.0,68,0.00,,,0.01,meteohub,2013-07-01 17:52:00,
2013-07-01 13:57:00,83.8,71.8,29.86,SSE,149,1.0,4.0,67,0.00,,,0.01,meteohub,2013-07-01 17:57:00,
2013-07-01 14:03:00,84.7,70.7,29.85,SE,141,3.0,4.0,63,0.00,,,0.01,meteohub,2013-07-01 18:03:00,
2013-07-01 14:09:00,84.4,70.3,29.85,SSE,149,2.0,4.0,63,0.00,,,0.01,meteohub,2013-07-01 18:09:00,
2013-07-01 14:15:00,84.4,70.3,29.86,South,175,1.0,5.0,63,0.00,,,0.01,meteohub,2013-07-01 18:15:00,
2013-07-01 14:21:00,83.8,70.3,29.85,ESE,107,1.0,5.0,64,0.00,,,0.01,meteohub,2013-07-01 18:21:00,
2013-07-01 14:27:00,82.8,70.7,29.86,West,259,1.0,5.0,67,0.00,,,0.01,meteohub,2013-07-01 18:27:00,
2013-07-01 14:32:00,81.9,70.7,29.85,SSE,161,0.0,3.0,69,0.00,,,0.01,meteohub,2013-07-01 18:32:00,
2013-07-01 14:37:00,81.3,70.2,29.86,SSE,159,0.0,3.0,69,0.00,,,0.01,meteohub,2013-07-01 18:37:00,
2013-07-01 14:42:00,80.6,69.4,29.86,South,171,1.0,2.0,69,0.00,,,0.01,meteohub,2013-07-01 18:42:00,
2013-07-01 14:47:00,80.1,70.2,29.86,ESE,114,0.0,2.0,72,0.00,,,0.01,meteohub,2013-07-01 18:47:00,
2013-07-01 14:54:00,79.0,71.6,29.86,South,178,0.0,2.0,78,0.00,,,0.01,meteohub,2013-07-01 18:54:00,
2013-07-01 15:00:00,78.3,71.2,29.86,South,178,0.0,1.0,79,0.01,,,0.02,meteohub,2013-07-01 19:00:00,
2013-07-01 15:06:00,77.7,71.4,29.86,SE,144,0.0,1.0,81,0.01,,,0.02,meteohub,2013-07-01 19:06:00,
2013-07-01 15:12:00,78.1,73.6,29.86,SSE,148,0.0,1.0,86,0.01,,,0.02,meteohub,2013-07-01 19:12:00,
2013-07-01 15:17:00,79.2,73.6,29.86,NW,313,1.0,1.0,83,0.01,,,0.02,meteohub,2013-07-01 19:17:00,
2013-07-01 15:22:00,80.1,72.5,29.86,South,180,0.0,2.0,78,0.01,,,0.02,meteohub,2013-07-01 19:22:00,
2013-07-01 15:27:00,81.0,72.0,29.86,South,177,0.0,2.0,74,0.01,,,0.02,meteohub,2013-07-01 19:27:00,
2013-07-01 15:32:00,81.5,73.9,29.86,SSE,148,1.0,2.0,78,0.01,,,0.02,meteohub,2013-07-01 19:32:00,
2013-07-01 15:37:00,81.9,71.6,29.85,WNW,290,3.0,6.0,71,0.01,,,0.02,meteohub,2013-07-01 19:37:00,
2013-07-01 15:42:00,82.8,72.3,29.85,WSW,237,1.0,6.0,71,0.01,,,0.02,meteohub,2013-07-01 19:42:00,
2013-07-01 15:48:00,82.9,73.4,29.85,South,171,0.0,6.0,73,0.01,,,0.02,meteohub,2013-07-01 19:48:00,
2013-07-01 15:54:00,84.0,72.3,29.85,SW,218,1.0,3.0,68,0.01,,,0.02,meteohub,2013-07-01 19:54:00,
2013-07-01 16:00:00,84.7,71.6,29.85,SSE,156,2.0,3.0,65,0.00,,,0.02,meteohub,2013-07-01 20:00:00,
2013-07-01 16:06:00,84.2,71.2,29.85,South,173,0.0,3.0,65,0.00,,,0.02,meteohub,2013-07-01 20:06:00,
2013-07-01 16:12:00,83.1,70.5,29.86,SSE,157,1.0,3.0,66,0.00,,,0.02,meteohub,2013-07-01 20:12:00,
2013-07-01 16:17:00,82.2,70.5,29.86,South,184,0.0,4.0,68,0.00,,,0.02,meteohub,2013-07-01 20:17:00,
2013-07-01 16:22:00,81.9,70.7,29.86,WSW,252,1.0,4.0,69,0.00,,,0.02,meteohub,2013-07-01 20:22:00,
2013-07-01 16:27:00,81.9,71.1,29.86,SSE,150,0.0,3.0,70,0.00,,,0.02,meteohub,2013-07-01 20:27:00,
2013-07-01 16:32:00,81.5,70.7,29.85,West,275,0.0,2.0,70,0.00,,,0.02,meteohub,2013-07-01 20:32:00,
2013-07-01 16:37:00,81.7,71.8,29.86,NW,311,0.0,2.0,72,0.00,,,0.02,meteohub,2013-07-01 20:37:00,
2013-07-01 16:42:00,81.9,70.7,29.85,SSE,162,0.0,1.0,69,0.00,,,0.02,meteohub,2013-07-01 20:42:00,
2013-07-01 16:47:00,81.9,70.7,29.85,SE,126,1.0,3.0,69,0.00,,,0.02,meteohub,2013-07-01 20:47:00,
2013-07-01 16:52:00,81.9,71.1,29.85,WSW,245,1.0,3.0,70,0.00,,,0.02,meteohub,2013-07-01 20:52:00,
2013-07-01 16:57:00,81.5,71.2,29.84,SSE,152,0.0,3.0,71,0.00,,,0.02,meteohub,2013-07-01 20:57:00,
2013-07-01 17:02:00,81.1,70.3,29.85,SE,136,2.0,3.0,70,0.00,,,0.02,meteohub,2013-07-01 21:02:00,
2013-07-01 17:07:00,80.8,70.9,29.84,SSE,166,0.0,3.0,72,0.00,,,0.02,meteohub,2013-07-01 21:07:00,
2013-07-01 17:12:00,80.4,70.5,29.84,SW,229,1.0,3.0,72,0.00,,,0.02,meteohub,2013-07-01 21:12:00,
2013-07-01 17:17:00,79.9,70.5,29.84,North,0,0.0,5.0,73,0.00,,,0.02,meteohub,2013-07-01 21:17:00,
2013-07-01 17:22:00,79.5,70.2,29.84,South,188,0.0,5.0,73,0.00,,,0.02,meteohub,2013-07-01 21:22:00,
2013-07-01 17:27:00,79.3,70.0,29.85,SSE,159,0.0,5.0,73,0.00,,,0.02,meteohub,2013-07-01 21:27:00,
2013-07-01 17:32:00,79.2,70.2,29.85,North,355,0.0,5.0,74,0.00,,,0.02,meteohub,2013-07-01 21:32:00,
2013-07-01 17:37:00,79.0,70.3,29.85,ESE,123,1.0,3.0,75,0.00,,,0.02,meteohub,2013-07-01 21:37:00,
2013-07-01 17:42:00,79.2,70.5,29.85,SSE,161,0.0,2.0,75,0.00,,,0.02,meteohub,2013-07-01 21:42:00,
2013-07-01 17:47:00,79.5,70.2,29.85,SE,131,0.0,2.0,73,0.00,,,0.02,meteohub,2013-07-01 21:47:00,
2013-07-01 17:52:00,79.9,70.9,29.86,SSE,166,0.0,3.0,74,0.00,,,0.02,meteohub,2013-07-01 21:52:00,
2013-07-01 17:57:00,79.9,70.5,29.85,WNW,290,1.0,3.0,73,0.00,,,0.02,meteohub,2013-07-01 21:57:00,
2013-07-01 18:02:00,79.9,70.5,29.85,South,174,0.0,4.0,73,0.00,,,0.02,meteohub,2013-07-01 22:02:00,
2013-07-01 18:07:00,79.9,70.0,29.85,SW,216,0.0,4.0,72,0.00,,,0.02,meteohub,2013-07-01 22:07:00,
2013-07-01 18:12:00,79.7,69.8,29.85,ENE,59,1.0,4.0,72,0.00,,,0.02,meteohub,2013-07-01 22:12:00,
2013-07-01 18:17:00,79.5,70.2,29.85,SSE,155,0.0,5.0,73,0.00,,,0.02,meteohub,2013-07-01 22:17:00,
2013-07-01 18:22:00,79.3,70.0,29.85,NW,307,0.0,5.0,73,0.00,,,0.02,meteohub,2013-07-01 22:22:00,
2013-07-01 18:27:00,79.3,70.0,29.86,SSE,150,2.0,5.0,73,0.00,,,0.02,meteohub,2013-07-01 22:27:00,
2013-07-01 18:32:00,79.2,69.8,29.86,ESE,123,0.0,3.0,73,0.00,,,0.02,meteohub,2013-07-01 22:32:00,
2013-07-01 18:37:00,79.2,70.2,29.86,East,90,0.0,2.0,74,0.00,,,0.02,meteohub,2013-07-01 22:37:00,
2013-07-01 18:42:00,79.0,69.6,29.86,NNW,333,3.0,3.0,73,0.00,,,0.02,meteohub,2013-07-01 22:42:00,
2013-07-01 18:47:00,78.6,69.6,29.86,ENE,78,0.0,4.0,74,0.00,,,0.02,meteohub,2013-07-01 22:47:00,
2013-07-01 18:52:00,78.4,69.4,29.86,South,191,0.0,4.0,74,0.00,,,0.02,meteohub,2013-07-01 22:52:00,
2013-07-01 18:57:00,78.3,69.6,29.86,East,98,1.0,4.0,75,0.00,,,0.02,meteohub,2013-07-01 22:57:00,
2013-07-01 19:02:00,78.1,69.4,29.86,SSE,163,0.0,3.0,75,0.00,,,0.02,meteohub,2013-07-01 23:02:00,
2013-07-01 19:07:00,77.9,69.3,29.87,South,174,1.0,3.0,75,0.00,,,0.02,meteohub,2013-07-01 23:07:00,
2013-07-01 19:12:00,77.7,69.1,29.87,SSE,152,1.0,3.0,75,0.00,,,0.02,meteohub,2013-07-01 23:12:00,
2013-07-01 19:17:00,77.5,69.4,29.87,SSE,150,0.0,4.0,76,0.00,,,0.02,meteohub,2013-07-01 23:17:00,
2013-07-01 19:22:00,77.4,69.3,29.86,ESE,117,0.0,4.0,76,0.00,,,0.02,meteohub,2013-07-01 23:22:00,
2013-07-01 19:27:00,77.2,69.4,29.87,SE,132,2.0,4.0,77,0.00,,,0.02,meteohub,2013-07-01 23:27:00,
2013-07-01 19:32:00,77.2,69.4,29.87,SW,234,1.0,2.0,77,0.00,,,0.02,meteohub,2013-07-01 23:32:00,
2013-07-01 19:37:00,77.2,69.8,29.87,NW,319,0.0,2.0,78,0.00,,,0.02,meteohub,2013-07-01 23:37:00,
2013-07-01 19:42:00,77.0,69.6,29.87,WSW,243,0.0,2.0,78,0.00,,,0.02,meteohub,2013-07-01 23:42:00,
2013-07-01 19:47:00,76.8,69.8,29.87,SSE,152,1.0,2.0,79,0.00,,,0.02,meteohub,2013-07-01 23:47:00,
2013-07-01 19:52:00,76.6,69.6,29.87,SSW,200,2.0,2.0,79,0.00,,,0.02,meteohub,2013-07-01 23:52:00,
2013-07-01 19:57:00,76.6,70.0,29.87,East,100,0.0,2.0,80,0.00,,,0.02,meteohub,2013-07-01 23:57:00,
2013-07-01 20:02:00,76.5,69.8,29.87,SE,144,0.0,2.0,80,0.00,,,0.02,meteohub,2013-07-02 00:02:00,
2013-07-01 20:07:00,76.3,69.6,29.87,South,170,0.0,2.0,80,0.00,,,0.02,meteohub,2013-07-02 00:07:00,
2013-07-01 20:12:00,76.1,69.4,29.87,SSE,156,2.0,2.0,80,0.00,,,0.02,meteohub,2013-07-02 00:12:00,
2013-07-01 20:17:00,75.9,69.6,29.88,ESE,115,2.0,3.0,81,0.00,,,0.02,meteohub,2013-07-02 00:17:00,
2013-07-01 20:22:00,75.7,69.4,29.88,SSE,152,0.0,4.0,81,0.00,,,0.02,meteohub,2013-07-02 00:22:00,
2013-07-01 20:27:00,75.7,69.4,29.88,West,277,2.0,4.0,81,0.00,,,0.02,meteohub,2013-07-02 00:27:00,
2013-07-01 20:32:00,75.6,69.3,29.88,South,169,2.0,3.0,81,0.00,,,0.02,meteohub,2013-07-02 00:32:00,
2013-07-01 20:39:00,75.4,69.1,29.88,South,184,0.0,3.0,81,0.00,,,0.02,meteohub,2013-07-02 00:39:00,
2013-07-01 20:45:00,75.0,69.1,29.89,SSE,167,0.0,5.0,82,0.00,,,0.02,meteohub,2013-07-02 00:45:00,
2013-07-01 20:51:00,74.8,68.9,29.89,South,186,0.0,3.0,82,0.00,,,0.02,meteohub,2013-07-02 00:51:00,
2013-07-01 20:57:00,74.8,68.9,29.89,SSE,161,1.0,3.0,82,0.00,,,0.02,meteohub,2013-07-02 00:57:00,
2013-07-01 21:02:00,74.7,68.7,29.90,South,175,0.0,3.0,82,0.00,,,0.02,meteohub,2013-07-02 01:02:00,
2013-07-01 21:07:00,74.7,69.1,29.90,WSW,242,0.0,2.0,83,0.00,,,0.02,meteohub,2013-07-02 01:07:00,
2013-07-01 21:12:00,74.5,68.5,29.90,WNW,292,0.0,2.0,82,0.00,,,0.02,meteohub,2013-07-02 01:12:00,
2013-07-01 21:17:00,74.3,68.7,29.91,SSW,199,0.0,2.0,83,0.00,,,0.02,meteohub,2013-07-02 01:17:00,
2013-07-01 21:22:00,74.3,68.7,29.91,ESE,121,0.0,3.0,83,0.00,,,0.02,meteohub,2013-07-02 01:22:00,
2013-07-01 21:27:00,74.1,68.5,29.91,South,184,0.0,3.0,83,0.00,,,0.02,meteohub,2013-07-02 01:27:00,
2013-07-01 21:32:00,74.1,68.5,29.90,NW,313,0.0,3.0,83,0.00,,,0.02,meteohub,2013-07-02 01:32:00,
2013-07-01 21:37:00,73.9,68.4,29.90,South,184,0.0,3.0,83,0.00,,,0.02,meteohub,2013-07-02 01:37:00,
2013-07-01 21:42:00,73.9,68.4,29.90,ESE,123,0.0,3.0,83,0.00,,,0.02,meteohub,2013-07-02 01:42:00,
2013-07-01 21:47:00,73.9,68.7,29.90,SE,125,0.0,2.0,84,0.00,,,0.02,meteohub,2013-07-02 01:47:00,
2013-07-01 21:52:00,73.9,68.7,29.91,SE,132,0.0,3.0,84,0.00,,,0.02,meteohub,2013-07-02 01:52:00,
2013-07-01 21:57:00,73.9,68.7,29.91,SE,139,1.0,3.0,84,0.00,,,0.02,meteohub,2013-07-02 01:57:00,
2013-07-01 22:02:00,73.9,68.7,29.91,ESE,116,0.0,3.0,84,0.00,,,0.02,meteohub,2013-07-02 02:02:00,
2013-07-01 22:07:00,73.9,68.7,29.91,SW,235,0.0,3.0,84,0.00,,,0.02,meteohub,2013-07-02 02:07:00,
2013-07-01 22:12:00,73.9,68.7,29.91,NNE,18,0.0,2.0,84,0.00,,,0.02,meteohub,2013-07-02 02:12:00,
2013-07-01 22:17:00,73.9,68.7,29.91,East,95,0.0,2.0,84,0.00,,,0.02,meteohub,2013-07-02 02:17:00,
2013-07-01 22:22:00,73.9,68.7,29.91,SE,134,0.0,2.0,84,0.00,,,0.02,meteohub,2013-07-02 02:22:00,
2013-07-01 22:27:00,73.8,68.5,29.91,East,90,1.0,2.0,84,0.00,,,0.02,meteohub,2013-07-02 02:27:00,
2013-07-01 22:32:00,73.8,68.9,29.91,South,173,0.0,2.0,85,0.00,,,0.02,meteohub,2013-07-02 02:32:00,
2013-07-01 22:37:00,73.6,68.7,29.91,SSE,148,0.0,1.0,85,0.00,,,0.02,meteohub,2013-07-02 02:37:00,
2013-07-01 22:42:00,73.6,68.7,29.91,SE,136,0.0,2.0,85,0.00,,,0.02,meteohub,2013-07-02 02:42:00,
2013-07-01 22:47:00,73.6,68.7,29.90,SE,140,0.0,2.0,85,0.00,,,0.02,meteohub,2013-07-02 02:47:00,
2013-07-01 22:52:00,73.6,68.7,29.90,SSE,153,1.0,2.0,85,0.00,,,0.02,meteohub,2013-07-02 02:52:00,
2013-07-01 22:57:00,73.4,68.5,29.90,West,259,0.0,2.0,85,0.00,,,0.02,meteohub,2013-07-02 02:57:00,
2013-07-01 23:02:00,73.4,68.5,29.90,SW,224,0.0,2.0,85,0.00,,,0.02,meteohub,2013-07-02 03:02:00,
2013-07-01 23:07:00,73.2,68.4,29.91,ESE,118,0.0,2.0,85,0.00,,,0.02,meteohub,2013-07-02 03:07:00,
2013-07-01 23:12:00,73.2,68.4,29.91,SSE,160,0.0,4.0,85,0.00,,,0.02,meteohub,2013-07-02 03:12:00,
2013-07-01 23:17:00,73.2,68.7,29.91,ESE,110,0.0,4.0,86,0.00,,,0.02,meteohub,2013-07-02 03:17:00,
2013-07-01 23:22:00,73.2,68.7,29.91,ESE,117,1.0,4.0,86,0.00,,,0.02,meteohub,2013-07-02 03:22:00,
2013-07-01 23:27:00,73.2,68.7,29.91,East,99,0.0,3.0,86,0.00,,,0.02,meteohub,2013-07-02 03:27:00,
2013-07-01 23:32:00,73.0,68.5,29.91,WSW,246,0.0,3.0,86,0.00,,,0.02,meteohub,2013-07-02 03:32:00,
2013-07-01 23:37:00,73.0,68.5,29.91,South,177,0.0,3.0,86,0.00,,,0.02,meteohub,2013-07-02 03:37:00,
2013-07-01 23:42:00,73.0,68.5,29.92,West,269,0.0,2.0,86,0.00,,,0.02,meteohub,2013-07-02 03:42:00,
2013-07-01 23:47:00,72.9,68.4,29.92,WSW,257,0.0,2.0,86,0.00,,,0.02,meteohub,2013-07-02 03:47:00,
2013-07-01 23:52:00,72.9,68.7,29.92,NW,308,0.0,2.0,87,0.00,,,0.02,meteohub,2013-07-02 03:52:00,
2013-07-01 23:57:00,72.9,68.7,29.93,WNW,302,0.0,2.0,87,0.00,,,0.02,meteohub,2013-07-02 03:57:00,